This is the latest recevied weather packets stored in our database for station/object IN3XSV-13. If no packets are shown the sender has not sent any weather packets the latest 10 day(s).
| Time | Temp. | Humidity | Pressure | Rain* | Wind** | Luminosity | Snow |
|---|---|---|---|---|---|---|---|
| 1777646639 | 22.22° C | 32% | 9962.1 hPa | 0 mm | - | - | - |
| 1777646339 | 22.78° C | 32% | 9962.1 hPa | 0 mm | - | - | - |
| 1777646039 | 22.78° C | 32% | 9962.1 hPa | 0 mm | - | - | - |
| 1777645739 | 22.78° C | 32% | 9962.3 hPa | 0 mm | - | - | - |
| 1777645439 | 22.78° C | 32% | 9962.2 hPa | 0 mm | - | - | - |
| 1777645139 | 22.78° C | 32% | 9962.3 hPa | 0 mm | - | - | - |
| 1777644839 | 22.78° C | 32% | 9962.3 hPa | 0 mm | - | - | - |
| 1777644539 | 22.78° C | 32% | 9962.4 hPa | 0 mm | - | - | - |
| 1777644239 | 22.78° C | 32% | 9962.5 hPa | 0 mm | - | - | - |
| 1777643939 | 23.33° C | 33% | 9962.5 hPa | 0 mm | - | - | - |
| 1777643639 | 22.78° C | 33% | 9962.5 hPa | 0 mm | - | - | - |
| 1777643339 | 23.33° C | 33% | 9962.5 hPa | 0 mm | - | - | - |
| 1777643039 | 23.33° C | 33% | 9962.6 hPa | 0 mm | - | - | - |
| 1777642739 | 23.33° C | 34% | 9962.8 hPa | 0 mm | - | - | - |
| 1777642439 | 22.78° C | 34% | 9962.8 hPa | 0 mm | - | - | - |
| 1777642139 | 22.78° C | 35% | 9962.9 hPa | 0 mm | - | - | - |
| 1777641839 | 22.78° C | 37% | 9962.8 hPa | 0 mm | - | - | - |
| 1777641539 | 22.22° C | 38% | 9962.9 hPa | 0 mm | - | - | - |
| 1777641239 | 21.11° C | 39% | 9962.9 hPa | 0 mm | - | - | - |
| 1777640939 | 20.56° C | 39% | 9963.1 hPa | 0 mm | - | - | - |
| 1777640639 | 20.56° C | 38% | 9963.1 hPa | 0 mm | - | - | - |
| 1777640339 | 21.11° C | 39% | 9963.1 hPa | 0 mm | - | - | - |
| 1777640039 | 21.67° C | 40% | 9963.3 hPa | 0 mm | - | - | - |
| 1777639739 | 20.56° C | 40% | 9963.3 hPa | 0 mm | - | - | - |
| 1777639439 | 20° C | 40% | 9963.4 hPa | 0 mm | - | - | - |
* Rain latest hour (hover to see other rain measurements)
** Current wind speed in m/s (hover to see current wind gust speed)